{"data":{"norad_id":68185,"intl_designator":"2026-050U","name":"STARLINK-37061","alt_names":[],"object_type":"PAYLOAD","status":"ACTIVE","operator":null,"country":"US","launch_date":"2026-03-14","launch_site_code":"AFETR","launch_vehicle":null,"mission":null,"orbit_class":"UNKNOWN","rcs_meters":null,"size_class":null,"mass_kg":null,"dimensions":null,"purposes":["comms"],"wikipedia_slug":null,"has_3d_model":false,"image_url":null,"decayed_at":null,"tle_current":{"epoch":"2026-05-25T00:00:02.000160Z","epoch_age_seconds":74780,"freshness":"FRESH","line1":"1 68185U 26050U   26145.00002315 -.00020765  00000+0 -60513-3 0  9999","line2":"2 68185  53.1591 271.3547 0001191  74.2410 149.0048 15.34398969  5911","mean_motion":15.34398969,"eccentricity":0.0001191,"inclination_deg":53.1591,"raan_deg":271.3547,"arg_perigee_deg":74.241,"mean_anomaly_deg":149.0048,"bstar":-0.00060513,"rev_number":591,"period_min":93.847821139927,"perigee_km":461.89156012052,"apogee_km":463.52104899567,"semimajor_km":6840.8433045581,"source":"CELESTRAK","updated_at":"2026-05-25T13:38:21.856295Z"}}}